FW5801 Weather Reports


Display with metric or nautical units.
time (UTC)temp
F
wind
direction
speed
MPH
gust
MPH
rain 1hr
in
rain 24hr
in
rain mn
in
humidity
%
barometer
mb
20260902141101 85 269 4.0 10.0 0.00 0.00 0.00 72 1019.0
20260902140557 84 290 4.0 12.0 0.00 0.00 0.00 72 1019.1
20260902135601 84 236 6.0 10.0 0.00 0.00 0.00 73 1018.9
20260902135100 83 260 4.0 10.0 0.00 0.00 0.00 74 1018.9
20260902134608 83 288 5.0 10.0 0.00 0.00 0.00 74 1018.9
20260902134059 82 0 6.0 14.0 0.00 0.00 0.00 75 1019.0
20260902133603 82 261 6.0 14.0 0.00 0.00 0.00 75 1019.0
20260902133105 82 252 3.0 9.0 0.00 0.00 0.00 76 1018.9
20260902132556 81 239 4.0 10.0 0.00 0.00 0.00 76 1019.0
20260902132059 81 249 5.0 11.0 0.00 0.00 0.00 77 1019.0
20260902131603 80 265 4.0 11.0 0.00 0.00 0.00 77 1018.9
20260902131102 80 253 4.0 11.0 0.00 0.00 0.00 78 1019.0
20260902130600 80 275 5.0 10.0 0.00 0.00 0.00 78 1019.1
20260902130105 79 296 5.0 10.0 0.00 0.00 0.00 79 1019.0
20260902125557 79 263 4.0 10.0 0.00 0.00 0.00 79 1019.1
20260902125057 79 346 5.0 10.0 0.00 0.00 0.00 80 1018.9
20260902124608 78 267 3.0 12.0 0.00 0.00 0.00 81 1018.8
20260902124056 78 273 4.0 12.0 0.00 0.00 0.00 81 1018.8
20260902123559 77 242 4.0 9.0 0.00 0.00 0.00 81 1018.7
20260902123105 77 260 4.0 9.0 0.00 0.00 0.00 82 1018.8
20260902122603 76 257 4.0 8.0 0.00 0.00 0.00 82 1018.8
20260902122059 76 273 3.0 8.0 0.00 0.00 0.00 83 1018.8
20260902121613 76 263 3.0 8.0 0.00 0.00 0.00 83 1018.6
20260902121057 75 244 3.0 8.0 0.00 0.00 0.00 83 1018.6
20260902120556 75 232 3.0 8.0 0.00 0.00 0.00 84 1018.8
20260902120104 75 240 2.0 8.0 0.00 0.00 0.00 84 1018.7
20260902115557 75 0 2.0 8.0 0.00 0.00 0.00 84 1018.6
20260902115100 74 217 2.0 7.0 0.00 0.00 0.00 85 1018.6
20260902114603 74 246 3.0 7.0 0.00 0.00 0.00 85 1018.6
20260902114057 74 259 1.0 5.0 0.00 0.00 0.00 85 1018.5
20260902113559 74 256 1.0 5.0 0.00 0.00 0.00 85 1018.4
20260902113111 74 263 1.0 5.0 0.00 0.00 0.00 86 1018.5
20260902112601 74 258 1.0 7.0 0.00 0.00 0.00 86 1018.4
20260902112059 74 254 2.0 8.0 0.00 0.00 0.00 86 1018.4
20260902111603 73 243 1.0 8.0 0.00 0.00 0.00 86 1018.5
20260902111058 73 0 2.0 7.0 0.00 0.00 0.00 86 1018.4
20260902110600 73 232 3.0 7.0 0.00 0.00 0.00 86 1018.4
20260902110120 73 257 3.0 6.0 0.00 0.00 0.00 86 1018.4
20260902105556 73 216 2.0 5.0 0.00 0.00 0.00 86 1018.3
20260902105059 73 239 2.0 5.0 0.00 0.00 0.00 86 1018.3
20260902104601 73 228 2.0 5.0 0.00 0.00 0.00 86 1018.2
20260902104058 73 232 2.0 6.0 0.00 0.00 0.00 86 1018.2
20260902103557 73 232 2.0 6.0 0.00 0.00 0.00 86 1018.3
20260902103102 73 252 1.0 6.0 0.00 0.00 0.00 87 1018.2
20260902102557 73 0 2.0 6.0 0.00 0.00 0.00 87 1018.3
20260902102057 73 231 2.0 5.0 0.00 0.00 0.00 87 1018.2
20260902101607 73 220 2.0 5.0 0.00 0.00 0.00 87 1018.2
20260902101102 73 232 1.0 5.0 0.00 0.00 0.00 87 1018.2
20260902100603 73 235 2.0 5.0 0.00 0.00 0.00 87 1018.3
20260902100112 73 0 1.0 6.0 0.00 0.00 0.00 87 1018.3
20260902095557 73 218 2.0 6.0 0.00 0.00 0.00 87 1018.3
20260902095057 73 221 2.0 5.0 0.00 0.00 0.00 87 1018.3
20260902094604 73 238 2.0 4.0 0.00 0.00 0.00 87 1018.3
20260902094059 74 230 1.0 4.0 0.00 0.00 0.00 87 1018.2
20260902093557 74 224 1.0 5.0 0.00 0.00 0.00 87 1018.1
20260902093104 74 0 1.0 5.0 0.00 0.00 0.00 87 1018.3
20260902092559 74 223 1.0 4.0 0.00 0.00 0.00 87 1018.2
20260902092057 74 229 1.0 3.0 0.00 0.00 0.00 87 1018.3
20260902091603 74 236 0.0 3.0 0.00 0.00 0.00 87 1018.1
20260902091057 74 0 0.0 0.0 0.00 0.00 0.00 87 1018.2
20260902090557 74 0 0.0 0.0 0.00 0.00 0.00 87 1018.2
20260902090059 74 0 0.0 0.0 0.00 0.00 0.00 86 1018.2
20260902085559 74 0 0.0 0.0 0.00 0.00 0.00 86 1018.2
20260902085059 74 0 0.0 0.0 0.00 0.00 0.00 86 1018.1
20260902084622 74 0 0.0 2.0 0.00 0.00 0.00 86 1018.2
20260902084057 74 0 0.0 2.0 0.00 0.00 0.00 86 1018.1
20260902083603 74 0 0.0 2.0 0.00 0.00 0.00 86 1018.1
20260902083102 74 0 0.0 2.0 0.00 0.00 0.00 85 1018.1
20260902082557 74 0 0.0 2.0 0.00 0.00 0.00 85 1018.0
20260902082057 75 0 0.0 0.0 0.00 0.00 0.00 84 1018.1
20260902081606 75 0 0.0 0.0 0.00 0.00 0.00 84 1018.0
20260902081057 75 0 0.0 0.0 0.00 0.00 0.00 84 1017.9
20260902080557 75 0 0.0 1.0 0.00 0.00 0.00 84 1017.8
20260902080101 75 0 0.0 1.0 0.00 0.00 0.00 84 1017.8
20260902075556 75 0 0.0 1.0 0.00 0.00 0.00 83 1017.7
20260902075100 75 0 0.0 3.0 0.00 0.00 0.00 83 1017.7
20260902074606 75 0 0.0 4.0 0.00 0.00 0.00 83 1017.8
20260902074058 76 211 0.0 4.0 0.00 0.00 0.00 83 1017.7
20260902073557 76 222 1.0 4.0 0.00 0.00 0.00 83 1017.6
20260902073106 76 236 0.0 3.0 0.00 0.00 0.00 83 1017.5
20260902072557 76 0 1.0 3.0 0.00 0.00 0.00 83 1017.5
20260902072057 76 0 1.0 3.0 0.00 0.00 0.00 82 1017.5
20260902071607 76 255 1.0 4.0 0.00 0.00 0.00 82 1017.7
20260902071057 76 0 0.0 4.0 0.00 0.00 0.00 82 1017.5
20260902070559 76 0 1.0 3.0 0.00 0.00 0.00 82 1017.5
20260902070114 76 255 1.0 4.0 0.00 0.00 0.00 82 1017.4
20260902065559 76 251 1.0 4.0 0.00 0.00 0.00 82 1017.5
20260902065100 76 0 0.0 3.0 0.00 0.00 0.00 81 1017.5
20260902064610 77 263 0.0 5.0 0.00 0.00 0.00 81 1017.6
20260902064057 77 260 1.0 5.0 0.00 0.00 0.00 81 1017.6
20260902063559 77 249 1.0 5.0 0.00 0.00 0.00 81 1017.5
20260902063105 77 0 1.0 4.0 0.00 0.00 0.00 81 1017.5
20260902062600 77 0 0.0 0.0 0.00 0.00 0.00 81 1017.5
20260902062100 77 0 0.0 3.0 0.00 0.00 0.00 81 1017.7
20260902061059 77 0 1.0 4.0 0.00 0.00 0.00 80 1017.6
20260902060557 77 305 0.0 4.0 0.00 0.00 0.00 80 1017.6
20260902060114 78 269 1.0 8.0 0.00 0.00 0.00 80 1017.5
20260902055559 78 277 1.0 8.0 0.00 0.00 0.00 79 1017.6
20260902055059 78 277 3.0 8.0 0.00 0.00 0.00 79 1017.5
20260902054604 78 284 3.0 8.0 0.00 0.00 0.00 79 1017.5
20260902054056 78 283 2.0 11.0 0.00 0.00 0.00 79 1017.4
20260902053557 78 242 2.0 11.0 0.00 0.00 0.00 79 1017.3
20260902053121 78 271 3.0 11.0 0.00 0.00 0.00 79 1017.3
20260902052559 79 227 4.0 11.0 0.00 0.00 0.00 79 1017.2
20260902052057 79 257 4.0 11.0 0.00 0.00 0.00 79 1017.2
20260902051603 79 213 4.0 11.0 0.00 0.00 0.00 79 1017.3
20260902051102 78 242 4.0 11.0 0.00 0.00 0.00 79 1017.2
20260902050559 78 190 5.0 12.0 0.00 0.00 0.00 79 1017.3
20260902050122 78 250 3.0 12.0 0.00 0.00 0.00 79 1017.3
20260902045559 78 222 5.0 12.0 0.00 0.00 0.00 79 1017.2
20260902045057 78 257 4.0 10.0 0.00 0.00 0.00 79 1017.4
20260902044607 78 238 4.0 10.0 0.00 0.00 0.00 80 1017.2
20260902044058 79 243 5.0 10.0 0.00 0.00 0.00 79 1017.4
20260902043644 79 225 3.0 10.0 0.00 0.00 0.00 79 1017.5
20260902043107 79 275 4.0 10.0 0.00 0.00 0.00 80 1017.7
20260902042557 79 259 3.0 8.0 0.00 0.00 0.00 80 1017.7
20260902042057 78 264 2.0 6.0 0.00 0.00 0.00 80 1017.7
20260902041615 78 248 1.0 9.0 0.00 0.00 0.00 80 1017.7
20260902041057 78 221 3.0 9.0 0.00 0.00 0.00 80 1017.7
20260902040557 78 251 3.0 8.0 0.00 0.00 0.00 80 1017.6
20260902040106 79 248 2.0 8.0 0.00 0.00 0.00 80 1017.6
20260902035556 79 258 2.0 7.0 0.00 0.00 0.00 80 1017.7
20260902035059 79 0 3.0 7.0 0.00 0.00 0.00 80 1017.7
20260902034604 79 233 2.0 7.0 0.00 0.00 0.00 80 1017.8
20260902034056 79 254 2.0 8.0 0.00 0.00 0.00 79 1017.8
20260902033556 79 258 2.0 8.0 0.00 0.00 0.00 79 1017.8
20260902033114 79 223 2.0 8.0 0.00 0.00 0.00 79 1017.7
20260902032557 79 257 3.0 8.0 0.00 0.00 0.00 79 1017.7
20260902032057 79 258 3.0 7.0 0.00 0.00 0.00 79 1017.6
20260902031604 79 249 2.0 7.0 0.00 0.00 0.00 79 1017.7
20260902031057 79 261 2.0 7.0 0.00 0.00 0.00 79 1017.7
20260902030557 79 270 2.0 6.0 0.00 0.00 0.00 79 1017.7
20260902030103 80 254 1.0 6.0 0.00 0.00 0.00 79 1017.7
20260902025557 80 242 1.0 7.0 0.00 0.00 0.00 79 1017.8
20260902025057 80 260 1.0 7.0 0.00 0.00 0.00 78 1017.7
20260902024601 80 257 1.0 7.0 0.00 0.00 0.00 78 1017.7
20260902024057 80 238 2.0 7.0 0.00 0.00 0.00 79 1017.9
20260902023558 80 242 2.0 7.0 0.00 0.00 0.00 79 1017.9
20260902023102 80 267 0.0 4.0 0.00 0.00 0.00 79 1017.7
20260902022557 80 0 1.0 4.0 0.00 0.00 0.00 79 1017.6
20260902022101 80 0 1.0 7.0 0.00 0.00 0.00 78 1017.6
20260902021604 80 255 2.0 7.0 0.00 0.00 0.00 78 1017.6
20260902021057 81 232 2.0 7.0 0.00 0.00 0.00 78 1017.4
20260902020557 81 241 2.0 7.0 0.00 0.00 0.00 78 1017.4
20260902020105 81 254 2.0 5.0 0.00 0.00 0.00 78 1017.5
20260902015557 81 229 1.0 5.0 0.00 0.00 0.00 77 1017.5
20260902015057 81 0 1.0 4.0 0.00 0.00 0.00 77 1017.4
20260902014603 81 238 1.0 4.0 0.00 0.00 0.00 77 1017.3
20260902014056 82 249 0.0 4.0 0.00 0.00 0.00 76 1017.4
20260902013557 82 225 1.0 5.0 0.00 0.00 0.00 76 1017.3
20260902013101 82 0 1.0 5.0 0.00 0.00 0.00 76 1017.3
20260902012557 82 241 1.0 6.0 0.00 0.00 0.00 75 1017.4
20260902012056 82 0 0.0 6.0 0.00 0.00 0.00 75 1017.3
20260902011622 83 0 1.0 6.0 0.00 0.00 0.00 74 1017.3
20260902011100 83 0 2.0 8.0 0.00 0.00 0.00 74 1017.2
20260902010559 83 241 2.0 8.0 0.00 0.00 0.00 74 1017.3
20260902010116 83 236 1.0 5.0 0.00 0.00 0.00 74 1017.1
20260902005602 83 215 1.0 4.0 0.00 0.00 0.00 73 1017.1
20260902005056 84 0 0.0 5.0 0.00 0.00 0.00 72 1017.1
20260902004624 84 0 0.0 5.0 0.00 0.00 0.00 72 1017.0
20260902004059 84 233 2.0 5.0 0.00 0.00 0.00 72 1017.1
20260902003558 84 220 1.0 5.0 0.00 0.00 0.00 72 1016.9
20260902003108 84 219 1.0 5.0 0.00 0.00 0.00 71 1017.0
20260902002557 85 202 0.0 8.0 0.00 0.00 0.00 71 1017.0
20260902002058 85 218 2.0 8.0 0.00 0.00 0.00 71 1017.1
20260902001630 85 205 2.0 7.0 0.00 0.00 0.00 71 1017.1
20260902001056 85 209 1.0 6.0 0.00 0.00 0.00 71 1017.1
20260902000556 85 197 2.0 6.0 0.00 0.00 0.00 70 1017.2
20260902000107 86 204 2.0 5.0 0.00 0.00 0.00 70 1017.2
20260901235556 86 207 3.0 6.0 0.00 0.00 0.00 69 1017.3
20260901235100 86 230 2.0 6.0 0.00 0.00 0.00 69 1017.3
20260901234604 86 227 2.0 6.0 0.00 0.00 0.00 69 1017.2
20260901234057 87 190 2.0 5.0 0.00 0.00 0.00 69 1017.3
20260901233557 87 211 0.0 6.0 0.00 0.00 0.00 68 1017.4
20260901233118 87 212 2.0 6.0 0.00 0.00 0.00 68 1017.4
20260901232557 88 212 3.0 7.0 0.00 0.00 0.00 67 1017.5
20260901232059 88 200 3.0 8.0 0.00 0.00 0.00 66 1017.6
20260901231617 88 223 3.0 8.0 0.00 0.00 0.00 66 1017.5
20260901231056 89 0 3.0 8.0 0.00 0.00 0.00 65 1017.4
20260901230557 89 214 3.0 8.0 0.00 0.00 0.00 64 1017.5
20260901230104 89 202 4.0 8.0 0.00 0.00 0.00 63 1017.5
20260901225557 89 207 3.0 6.0 0.00 0.00 0.00 63 1017.5
20260901225059 90 213 2.0 8.0 0.00 0.00 0.00 63 1017.6
20260901224619 90 226 4.0 8.0 0.00 0.00 0.00 62 1017.7
20260901224057 90 200 3.0 9.0 0.00 0.00 0.00 61 1017.6
20260901223557 90 0 5.0 9.0 0.00 0.00 0.00 61 1017.5
20260901223105 91 265 4.0 10.0 0.00 0.00 0.00 61 1017.7
20260901222601 91 242 2.0 10.0 0.00 0.00 0.00 61 1017.8
20260901222102 91 254 4.0 10.0 0.00 0.00 0.00 60 1017.8
20260901221604 91 240 3.0 10.0 0.00 0.00 0.00 61 1017.8
20260901221059 91 245 5.0 9.0 0.00 0.00 0.00 61 1017.8
20260901220557 91 216 3.0 8.0 0.00 0.00 0.00 61 1017.7
20260901220106 91 254 3.0 8.0 0.00 0.00 0.00 62 1017.8
20260901215557 91 242 3.0 8.0 0.00 0.00 0.00 61 1017.8
20260901215100 90 241 3.0 10.0 0.00 0.00 0.00 62 1017.9
20260901214605 90 244 3.0 10.0 0.00 0.00 0.00 63 1017.8
20260901214056 90 241 3.0 10.0 0.00 0.00 0.00 61 1017.8
20260901213600 90 275 6.0 9.0 0.00 0.00 0.00 61 1017.8
20260901213125 91 242 3.0 8.0 0.00 0.00 0.00 62 1017.8
20260901212600 91 238 3.0 9.0 0.00 0.00 0.00 61 1017.9
20260901212102 91 273 4.0 10.0 0.00 0.00 0.00 62 1017.8
20260901211603 91 238 5.0 11.0 0.00 0.00 0.00 61 1017.9
20260901211058 91 257 5.0 11.0 0.00 0.00 0.00 60 1017.9
20260901210559 91 285 3.0 14.0 0.00 0.00 0.00 61 1017.8
20260901210118 91 207 6.0 14.0 0.00 0.00 0.00 60 1017.7
20260901205557 92 229 7.0 12.0 0.00 0.00 0.00 59 1017.8
20260901205057 92 251 5.0 13.0 0.00 0.00 0.00 60 1017.6
20260901204608 91 218 6.0 13.0 0.00 0.00 0.00 59 1017.7
20260901204102 92 206 6.0 13.0 0.00 0.00 0.00 59 1017.7
20260901203601 92 227 5.0 16.0 0.00 0.00 0.00 60 1017.7
20260901203103 92 219 5.0 16.0 0.00 0.00 0.00 60 1017.7
20260901202603 92 236 5.0 12.0 0.00 0.00 0.00 59 1017.7
20260901202101 92 264 6.0 12.0 0.00 0.00 0.00 60 1017.7
20260901201602 92 242 5.0 13.0 0.00 0.00 0.00 59 1017.7
20260901201059 92 226 7.0 13.0 0.00 0.00 0.00 59 1017.8
20260901200557 92 242 6.0 13.0 0.00 0.00 0.00 58 1017.7
20260901200115 92 265 6.0 12.0 0.00 0.00 0.00 60 1017.7
20260901195557 92 270 3.0 12.0 0.00 0.00 0.00 60 1017.7
20260901195057 92 218 4.0 14.0 0.00 0.00 0.00 61 1017.7
20260901194605 92 221 6.0 14.0 0.00 0.00 0.00 62 1017.8
20260901194056 92 286 6.0 14.0 0.00 0.00 0.00 59 1017.9
20260901193601 92 208 3.0 11.0 0.00 0.00 0.00 60 1017.9
20260901193109 92 217 4.0 11.0 0.00 0.00 0.00 59 1017.9
20260901192600 93 261 4.0 11.0 0.00 0.00 0.00 59 1018.0
20260901192103 92 192 3.0 11.0 0.00 0.00 0.00 60 1018.0
20260901191608 92 279 5.0 13.0 0.00 0.00 0.00 58 1018.0
20260901191056 92 244 8.0 13.0 0.00 0.00 0.00 58 1018.1
20260901190601 92 249 5.0 11.0 0.00 0.00 0.00 59 1018.0
20260901190111 91 234 7.0 12.0 0.00 0.00 0.00 58 1018.0
20260901185601 91 254 5.0 13.0 0.00 0.00 0.00 59 1018.0
20260901185104 91 258 8.0 13.0 0.00 0.00 0.00 59 1018.0
20260901184608 92 260 5.0 13.0 0.00 0.00 0.00 59 1018.1
20260901184100 91 250 5.0 12.0 0.00 0.00 0.00 61 1018.1
20260901183600 91 238 6.0 14.0 0.00 0.00 0.00 60 1018.1
20260901183111 91 240 7.0 14.0 0.00 0.00 0.00 62 1018.1
20260901182557 91 240 5.0 11.0 0.00 0.00 0.00 62 1018.2
20260901182057 91 217 4.0 13.0 0.00 0.00 0.00 60 1018.2
20260901181605 91 284 5.0 13.0 0.00 0.00 0.00 63 1018.2
20260901181056 91 232 7.0 13.0 0.00 0.00 0.00 61 1018.3
20260901180600 91 224 3.0 10.0 0.00 0.00 0.00 62 1018.3
20260901180105 91 252 5.0 11.0 0.00 0.00 0.00 63 1018.4
20260901175600 92 231 5.0 11.0 0.00 0.00 0.00 61 1018.4
20260901175056 92 196 5.0 11.0 0.00 0.00 0.00 60 1018.4
20260901174603 92 259 3.0 11.0 0.00 0.00 0.00 58 1018.5
20260901174100 92 284 5.0 11.0 0.00 0.00 0.00 59 1018.6
20260901173557 91 269 4.0 10.0 0.00 0.00 0.00 60 1018.5
20260901173109 91 245 4.0 10.0 0.00 0.00 0.00 60 1018.6
20260901172559 91 280 2.0 10.0 0.00 0.00 0.00 61 1018.7
20260901172100 90 275 4.0 10.0 0.00 0.00 0.00 62 1018.8
20260901171611 91 248 4.0 9.0 0.00 0.00 0.00 61 1018.9
20260901171056 91 232 4.0 11.0 0.00 0.00 0.00 60 1019.1
20260901170603 91 272 5.0 11.0 0.00 0.00 0.00 59 1019.0
20260901170109 91 275 5.0 11.0 0.00 0.00 0.00 61 1019.0
20260901165557 91 252 4.0 10.0 0.00 0.00 0.00 59 1018.9
20260901165057 91 244 3.0 10.0 0.00 0.00 0.00 61 1018.9
20260901164607 91 254 3.0 10.0 0.00 0.00 0.00 61 1019.0
20260901164057 90 277 2.0 10.0 0.00 0.00 0.00 63 1018.9
20260901163557 89 281 5.0 10.0 0.00 0.00 0.00 63 1019.1
20260901163115 89 250 4.0 9.0 0.00 0.00 0.00 64 1019.2
20260901162559 89 220 4.0 12.0 0.00 0.00 0.00 65 1019.1
20260901162101 90 244 4.0 12.0 0.00 0.00 0.00 64 1019.2
20260901161627 91 279 4.0 9.0 0.00 0.00 0.00 62 1019.2
20260901161057 90 254 2.0 9.0 0.00 0.00 0.00 64 1019.1
20260901160603 89 317 4.0 10.0 0.00 0.00 0.00 66 1019.2
20260901160104 89 298 4.0 11.0 0.00 0.00 0.00 64 1019.1
20260901155556 88 244 5.0 12.0 0.00 0.00 0.00 66 1019.1
20260901155057 87 283 6.0 12.0 0.00 0.00 0.00 67 1019.2
20260901154620 87 290 5.0 12.0 0.00 0.00 0.00 67 1019.1
20260901154057 87 292 5.0 12.0 0.00 0.00 0.00 67 1019.0
20260901153604 87 289 5.0 17.0 0.00 0.00 0.00 67 1019.0
20260901153109 87 276 5.0 17.0 0.00 0.00 0.00 67 1019.1
20260901152557 87 312 7.0 17.0 0.00 0.00 0.00 67 1019.0
20260901152059 87 265 6.0 11.0 0.00 0.00 0.00 69 1019.0
20260901151601 87 314 6.0 12.0 0.00 0.00 0.00 69 1019.1
20260901151057 86 280 5.0 12.0 0.00 0.00 0.00 70 1019.1
20260901150557 86 267 6.0 13.0 0.00 0.00 0.00 70 1018.9
20260901150121 85 250 5.0 13.0 0.00 0.00 0.00 72 1019.0
20260901145604 85 284 7.0 16.0 0.00 0.00 0.00 70 1019.1
20260901145056 85 255 8.0 16.0 0.00 0.00 0.00 70 1019.1
20260901144606 85 304 6.0 16.0 0.00 0.00 0.00 71 1019.0
20260901144059 85 270 7.0 14.0 0.00 0.00 0.00 73 1019.1
20260901143557 84 284 5.0 11.0 0.00 0.00 0.00 74 1019.1
20260901143108 84 265 5.0 14.0 0.00 0.00 0.00 72 1019.2
20260901142600 84 299 5.0 14.0 0.00 0.00 0.00 73 1019.2
20260901142057 83 324 7.0 14.0 0.00 0.00 0.00 73 1019.2
20260901141605 83 274 9.0 14.0 0.00 0.00 0.00 73 1019.1